Location: Bouchavesnes-Bergen
(49.9859°N, 2.9203°E)
Time: 15:13:18
(UTC+00:00)

NOAA 16 DEB - Pass Details

Date: 28 September 2021
Orbit: 798 x 841 km, 98.8° (Epoch: 25 October)

Event Time Altitude Azimuth Distance (km) Brightness Sun altitude
Exits shadow 22:32:29 20° 354° (N) 1,808 ? -40.4°
Drops below altitude 10° 22:34:00 10° 350° (N) 2,388 ? -40.5°
Sets 22:36:21 0° 348° (NNW) 3,321 ? -40.6°
